TimeCST,TemperatureF,Dew PointF,Humidity,Sea Level PressureIn,VisibilityMPH,Wind Direction,Wind SpeedMPH,Gust SpeedMPH,PrecipitationIn,Events,Conditions,WindDirDegrees,DateUTC
12:03 AM,64.4,64.4,100,30.07,8.0,Calm,Calm,-,0.01,Rain,Rain,0,2013-01-10 06:03:00
12:31 AM,64.4,64.4,100,30.06,5.0,Calm,Calm,-,0.07,Rain,Heavy Rain,0,2013-01-10 06:31:00
12:53 AM,66.0,64.0,93,30.06,10.0,NE,8.1,-,0.09,,Overcast,50,2013-01-10 06:53:00
1:06 AM,66.2,64.4,94,30.06,10.0,NE,4.6,-,0.00,Rain,Light Rain,50,2013-01-10 07:06:00
1:20 AM,66.2,64.4,94,30.04,3.0,ENE,9.2,-,0.04,Rain-Thunderstorm,Heavy Thunderstorms and Rain,70,2013-01-10 07:20:00
1:35 AM,64.4,64.4,100,30.05,10.0,ENE,8.1,-,0.09,Rain,Light Rain,70,2013-01-10 07:35:00
1:51 AM,64.4,64.4,100,30.04,10.0,NE,8.1,-,0.09,Rain-Thunderstorm,Light Rain,40,2013-01-10 07:51:00
1:53 AM,64.9,64.0,97,30.07,10.0,ENE,4.6,-,0.09,Rain-Thunderstorm,Light Rain,60,2013-01-10 07:53:00
2:03 AM,64.4,64.4,100,30.04,10.0,Variable,3.5,-,N/A,Rain-Thunderstorm,Rain,0,2013-01-10 08:03:00
2:22 AM,66.2,64.4,94,30.05,2.5,NW,9.2,-,0.12,Rain,Heavy Rain,320,2013-01-10 08:22:00
2:30 AM,66.2,64.4,94,30.05,5.0,NW,9.2,-,0.14,Rain,Rain,310,2013-01-10 08:30:00
2:38 AM,66.2,64.4,94,30.05,4.0,NNW,6.9,-,0.16,Rain,Rain,330,2013-01-10 08:38:00
2:45 AM,66.2,64.4,94,30.03,4.0,NNE,5.8,-,0.20,Rain-Thunderstorm,Heavy Rain,20,2013-01-10 08:45:00
2:47 AM,66.2,64.4,94,30.04,4.0,NNW,4.6,-,0.21,Rain-Thunderstorm,Heavy Rain,330,2013-01-10 08:47:00
2:53 AM,66.0,64.0,93,30.07,5.0,North,3.5,-,0.22,Rain-Thunderstorm,Rain,350,2013-01-10 08:53:00
3:12 AM,66.2,64.4,94,30.03,5.0,NNW,8.1,-,0.06,Rain-Thunderstorm,Rain,340,2013-01-10 09:12:00
3:30 AM,64.4,62.6,94,30.07,1.8,WNW,10.4,-,0.12,Rain-Thunderstorm,Heavy Rain,290,2013-01-10 09:30:00
3:39 AM,62.6,60.8,94,30.05,1.2,NNW,9.2,-,0.42,Rain,Heavy Rain,330,2013-01-10 09:39:00
3:44 AM,62.6,60.8,94,30.05,3.0,NNW,4.6,-,0.45,Rain,Rain,340,2013-01-10 09:44:00
3:53 AM,64.0,61.0,90,30.06,10.0,Calm,Calm,-,0.45,Rain,Light Rain,0,2013-01-10 09:53:00
4:27 AM,62.6,60.8,94,30.01,7.0,NE,6.9,-,N/A,Rain-Thunderstorm,Light Rain,50,2013-01-10 10:27:00
4:53 AM,63.0,61.0,93,30.06,7.0,Calm,Calm,-,0.15,Rain-Thunderstorm,Light Rain,0,2013-01-10 10:53:00
5:32 AM,62.6,60.8,94,29.98,7.0,NNE,6.9,-,0.03,Rain,Light Rain,20,2013-01-10 11:32:00
5:53 AM,63.0,61.0,93,30.01,7.0,NE,4.6,-,0.03,,Mostly Cloudy,50,2013-01-10 11:53:00
6:53 AM,63.0,61.0,93,30.02,7.0,East,13.8,-,0.09,Rain,Light Rain,80,2013-01-10 12:53:00
7:02 AM,62.6,60.8,94,29.97,10.0,East,12.7,-,0.01,Rain-Thunderstorm,Light Rain,80,2013-01-10 13:02:00
7:27 AM,62.6,60.8,94,29.94,10.0,East,10.4,-,0.03,Rain-Thunderstorm,Light Rain,80,2013-01-10 13:27:00
7:53 AM,63.0,60.1,90,29.92,10.0,ENE,19.6,24.2,0.04,Rain-Thunderstorm,Light Thunderstorms and Rain,60,2013-01-10 13:53:00
8:03 AM,64.4,60.8,88,30.00,10.0,Calm,Calm,-,0.01,Rain,Light Rain,0,2013-01-10 14:03:00
8:20 AM,62.6,60.8,94,30.03,10.0,Calm,Calm,-,0.01,,Scattered Clouds,0,2013-01-10 14:20:00
8:28 AM,62.6,60.8,94,30.03,10.0,West,4.6,-,0.01,,Mostly Cloudy,270,2013-01-10 14:28:00
8:53 AM,63.0,61.0,93,30.08,10.0,WSW,4.6,-,0.01,,Mostly Cloudy,250,2013-01-10 14:53:00
9:03 AM,62.6,60.8,94,30.06,10.0,West,5.8,-,N/A,,Mostly Cloudy,260,2013-01-10 15:03:00
9:26 AM,62.6,60.8,94,30.07,10.0,West,3.5,-,N/A,,Overcast,260,2013-01-10 15:26:00
9:53 AM,63.0,61.0,93,30.10,10.0,West,3.5,-,N/A,,Overcast,270,2013-01-10 15:53:00
10:53 AM,63.0,61.0,93,30.12,10.0,Calm,Calm,-,N/A,,Overcast,0,2013-01-10 16:53:00
11:10 AM,62.6,60.8,94,30.08,10.0,Calm,Calm,-,N/A,,Overcast,0,2013-01-10 17:10:00
11:21 AM,62.6,60.8,94,30.08,10.0,SW,3.5,-,N/A,,Overcast,230,2013-01-10 17:21:00
11:31 AM,62.6,60.8,94,30.07,10.0,SW,4.6,-,N/A,,Overcast,220,2013-01-10 17:31:00
11:53 AM,63.0,61.0,93,30.10,10.0,SW,4.6,-,N/A,,Overcast,220,2013-01-10 17:53:00
12:02 PM,62.6,60.8,94,30.07,10.0,SW,6.9,-,N/A,,Overcast,220,2013-01-10 18:02:00
12:20 PM,62.6,60.8,94,30.06,10.0,SSW,6.9,-,N/A,,Overcast,210,2013-01-10 18:20:00
12:27 PM,62.6,60.8,94,30.06,1.8,SSW,9.2,-,N/A,,Overcast,210,2013-01-10 18:27:00
12:34 PM,62.6,60.8,94,30.05,1.5,SSW,8.1,-,N/A,,Overcast,210,2013-01-10 18:34:00
12:42 PM,62.6,60.8,94,30.05,10.0,SSW,8.1,-,N/A,,Overcast,210,2013-01-10 18:42:00
12:53 PM,63.0,61.0,93,30.08,10.0,SSW,6.9,-,N/A,,Overcast,200,2013-01-10 18:53:00
1:12 PM,62.6,60.8,94,30.05,10.0,SSW,9.2,-,N/A,,Overcast,200,2013-01-10 19:12:00
1:53 PM,63.0,60.1,90,30.06,10.0,SSW,9.2,-,N/A,,Overcast,210,2013-01-10 19:53:00
2:53 PM,64.0,60.1,87,30.06,10.0,SSW,9.2,-,N/A,,Overcast,210,2013-01-10 20:53:00
3:53 PM,64.0,60.1,87,30.05,10.0,SW,11.5,-,N/A,,Overcast,230,2013-01-10 21:53:00
4:53 PM,63.0,60.1,90,30.05,10.0,SSW,9.2,-,N/A,,Overcast,200,2013-01-10 22:53:00
5:53 PM,62.1,60.1,93,30.03,10.0,SSW,8.1,-,N/A,,Overcast,210,2013-01-10 23:53:00
6:53 PM,62.1,60.1,93,30.04,10.0,SSW,6.9,-,N/A,,Overcast,210,2013-01-11 00:53:00
7:02 PM,62.6,59.0,88,30.02,10.0,SW,4.6,-,N/A,,Mostly Cloudy,220,2013-01-11 01:02:00
7:17 PM,60.8,57.2,88,30.02,10.0,SW,4.6,-,N/A,,Scattered Clouds,220,2013-01-11 01:17:00
7:53 PM,60.1,57.0,90,30.05,10.0,Calm,Calm,-,N/A,,Partly Cloudy,0,2013-01-11 01:53:00
8:53 PM,57.0,54.0,89,30.05,10.0,Calm,Calm,-,N/A,,Clear,0,2013-01-11 02:53:00
9:53 PM,55.9,53.1,90,30.07,5.0,Calm,Calm,-,N/A,,Clear,0,2013-01-11 03:53:00
10:23 PM,53.6,51.8,94,30.05,2.0,Calm,Calm,-,N/A,,Partly Cloudy,0,2013-01-11 04:23:00
10:32 PM,53.6,51.8,94,30.05,5.0,Calm,Calm,-,N/A,,Scattered Clouds,0,2013-01-11 04:32:00
10:53 PM,55.0,53.1,93,30.07,7.0,Calm,Calm,-,N/A,,Mostly Cloudy,0,2013-01-11 04:53:00
11:16 PM,53.6,51.8,94,30.05,1.8,Calm,Calm,-,N/A,,Clear,0,2013-01-11 05:16:00
11:35 PM,53.6,51.8,94,30.06,3.0,Calm,Calm,-,N/A,,Scattered Clouds,0,2013-01-11 05:35:00
11:38 PM,53.6,51.8,94,30.06,1.5,Calm,Calm,-,N/A,,Scattered Clouds,0,2013-01-11 05:38:00
11:49 PM,53.6,51.8,94,30.06,3.0,Calm,Calm,-,N/A,,Scattered Clouds,0,2013-01-11 05:49:00
11:53 PM,53.1,51.1,93,30.08,1.8,Calm,Calm,-,N/A,,Scattered Clouds,0,2013-01-11 05:53:00